Simultaneous Nadir Overpasses (SNOs) Predictions

Prediction of SNOs between GOES-14 and NOAA-20 Satellite Orbit:

Table of predicted SNOs for the next 14.0 days since TLE Epoch: 11/9/2018
Index Date Time (GOES-14) GOES-14 Lat,Lon NOAA-20 Lat,Lon Distance(km) Time Diff (sec)
1 11/09/2018 20:10:35 -0.13,-104.05 0.47,-101.26 317.00 80
2 11/11/2018 08:32:23 0.11,-104.15 0.66,-106.54 272.68 80
3 11/12/2018 08:10:59 0.12,-104.14 -0.37,-102.01 243.24 80
4 11/13/2018 20:32:55 -0.09,-104.02 -0.81,-107.31 374.20 80
5 11/14/2018 20:16:50 -0.10,-104.03 0.17,-102.77 143.35 80
6 11/16/2018 08:38:38 0.07,-104.16 0.96,-108.05 443.25 80
7 11/17/2018 08:17:14 0.09,-104.15 -0.07,-103.52 72.90 80
8 11/19/2018 20:20:24 -0.08,-104.02 -0.13,-104.28 29.23 80
9 11/20/2018 20:04:19 -0.09,-104.03 0.84, -99.74 488.45 80
10 11/22/2018 08:26:08 0.06,-104.17 0.23,-105.03 97.03 80
11 11/23/2018 08:04:43 0.08,-104.16 -0.75,-100.49 419.02 80




NCC Satellite Simultaneous Nadir Overpasses (SNOs) Prediction Service
